Home > Weather > Mostar > Past weeks

Flag for Bosnia-Herzegovina Past Weather in Mostar, Bosnia-Herzegovina — Yesterday and Last 2 Weeks

Now
82 °F

Sunny.


Feels Like: 82 °F
Forecast: 63 / 92 °F
Wind: 2 mph from North

Location: Mostar

Current Time: Jun 29, 2016 at 12:57:21 PM

Latest Report: Jun 29, 2016 at 12:30 PM


Visibility: 10 mi

Pressure: 29.92 "Hg

Humidity: 40%

Dew Point: 55 °F

Location of MostarLocation

Past Weather in Mostar — Graph

°F

Mostar Temperature Yesterday

Maximum temperature yesterday: 82 °F (at 1:30 PM)
Minimum temperature yesterday: 68 °F (at 4:00 AM)
Average temperature yesterday: 78 °F

High & Low Weather Summary for the Past Weeks

 TemperatureHumidityPressure
High99 °F (Jun 23, 2:00 PM)100% (Jun 26, 10:00 PM)30.09 "Hg (Jun 26, 10:00 PM)
Low57 °F (Jun 16, 4:30 AM)27% (Jun 23, 5:00 PM)29.56 "Hg (Jun 14, 12:30 PM)
Average77 °F61%29.90 "Hg
* Reported Jun 14 11:00 AM — Jun 29 11:30 AM, Mostar, Weather by CustomWeather, © 2016

Note: Actual official high and low records may vary slightly from our data, if they occured in-between our weather recording intervals... More about our weather records

Advertising

Mostar Weather History for the Previous 24 Hours

Scroll right to see more
 ConditionsComfort  
Time TempWeatherWind HumidityBarometerVisibility
11:30 AM
Wed, Jun 29
82 °FSunny.3 mph35%29.92 "Hg10 mi
11:00 AM81 °FSunny.2 mph39%29.92 "Hg10 mi
10:30 AM81 °FSunny.2 mph39%29.95 "Hg10 mi
10:00 AM79 °FPassing clouds.3 mph39%29.95 "HgN/A
9:30 AM79 °FSunny.2 mph39%29.95 "Hg10 mi
9:00 AM75 °FSunny.2 mph41%29.95 "Hg10 mi
8:30 AM73 °FSunny.2 mph50%29.95 "Hg10 mi
8:00 AM68 °FSunny.1 mph64%29.95 "Hg10 mi
7:30 AM68 °FSunny.3 mph69%29.95 "Hg10 mi
7:00 AM64 °FPassing clouds.3 mph73%29.95 "HgN/A
6:30 AM63 °FPassing clouds.3 mph77%29.95 "HgN/A
6:00 AM63 °FPassing clouds.3 mph77%29.95 "HgN/A
5:30 AM61 °FPassing clouds.3 mph77%29.95 "HgN/A
5:00 AM61 °FPassing clouds.3 mph83%29.92 "HgN/A
4:30 AM63 °FClear.3 mph73%29.92 "Hg10 mi
4:00 AM61 °FClear.3 mph77%29.92 "Hg10 mi
3:30 AM63 °FClear.2 mph73%29.95 "Hg10 mi
3:00 AM64 °FClear.3 mph73%29.95 "Hg10 mi
2:30 AM64 °FClear.6 mph64%29.95 "Hg10 mi
2:00 AM66 °FClear.2 mph64%29.92 "Hg10 mi
1:30 AM68 °FClear.3 mph56%29.95 "Hg10 mi
1:00 AM70 °FClear.3 mph57%29.92 "Hg10 mi
12:00 AM70 °FPassing clouds.5 mph60%29.92 "HgN/A
11:00 PM
Tue, Jun 28
72 °FPassing clouds.16 mph53%29.92 "HgN/A
10:00 PM75 °FPassing clouds.3 mph44%29.92 "HgN/A
9:00 PM77 °FPassing clouds.13 mph39%29.89 "HgN/A
8:00 PM79 °FPassing clouds.16 mph39%29.89 "HgN/A
7:00 PM81 °FPassing clouds.14 mph37%29.89 "HgN/A
6:30 PM82 °FPassing clouds.14 mph35%29.86 "HgN/A
6:00 PM82 °FPassing clouds.15 mph35%29.86 "HgN/A
5:30 PM82 °FPassing clouds.14 mph32%29.86 "HgN/A
5:00 PM82 °FPassing clouds.14 mph32%29.86 "HgN/A
4:30 PM82 °FPassing clouds.15 mph32%29.86 "HgN/A
4:00 PM82 °FPassing clouds.15 mph35%29.86 "HgN/A
3:30 PM82 °FPassing clouds.16 mph32%29.86 "HgN/A
3:00 PM82 °FPassing clouds.17 mph32%29.89 "HgN/A
2:30 PM82 °FPassing clouds.12 mph32%29.89 "HgN/A
2:00 PM82 °FPassing clouds.12 mph30%29.89 "HgN/A
1:30 PM82 °FPassing clouds.12 mph30%29.89 "HgN/A
1:00 PM81 °FPassing clouds.16 mph34%29.89 "HgN/A
12:30 PM81 °FPassing clouds.16 mph32%29.92 "HgN/A
12:00 PM79 °FPassing clouds.20 mph37%29.92 "HgN/A
Weather by CustomWeather, © 2016

See weather overviewHow to use our weather pages